owner,sensor,date,latitude,longitude,air_temperature,qcFlag 
LUMCON,ioos:station:LUMCON:103:1,2010-11-03T14:00:00Z,30.1889,-90.1683,18.5,1111122 
LUMCON,ioos:station:LUMCON:103:1,2010-11-03T15:00:00Z,30.1889,-90.1683,19.0,1111122 
LUMCON,ioos:station:LUMCON:103:1,2010-11-03T16:00:00Z,30.1889,-90.1683,19.2,1111122 
LUMCON,ioos:station:LUMCON:103:1,2010-11-03T17:00:00Z,30.1889,-90.1683,20.3,1111122 
LUMCON,ioos:station:LUMCON:103:1,2010-11-03T18:00:00Z,30.1889,-90.1683,21.5,1111122 
LUMCON,ioos:station:LUMCON:103:1,2010-11-03T19:00:00Z,30.1889,-90.1683,22.5,1111122 
LUMCON,ioos:station:LUMCON:103:1,2010-11-03T20:00:00Z,30.1889,-90.1683,23.1,1111122 
LUMCON,ioos:station:LUMCON:103:1,2010-11-03T21:00:00Z,30.1889,-90.1683,23.4,1111122 
LUMCON,ioos:station:LUMCON:103:1,2010-11-03T22:00:00Z,30.1889,-90.1683,23.1,1111122 
LUMCON,ioos:station:LUMCON:103:1,2010-11-03T23:00:00Z,30.1889,-90.1683,22.0,1111122 
LUMCON,ioos:station:LUMCON:103:1,2010-11-04T00:00:00Z,30.1889,-90.1683,22.0,1111122 
LUMCON,ioos:station:LUMCON:103:1,2010-11-04T01:00:00Z,30.1889,-90.1683,21.3,1111122 
LUMCON,ioos:station:LUMCON:103:1,2010-11-04T02:00:00Z,30.1889,-90.1683,20.4,1111122 
LUMCON,ioos:station:LUMCON:103:1,2010-11-04T03:00:00Z,30.1889,-90.1683,19.7,1111122 
LUMCON,ioos:station:LUMCON:103:1,2010-11-04T04:00:00Z,30.1889,-90.1683,19.5,1111122 
LUMCON,ioos:station:LUMCON:103:1,2010-11-04T05:00:00Z,30.1889,-90.1683,18.6,1111122 
LUMCON,ioos:station:LUMCON:103:1,2010-11-04T06:00:00Z,30.1889,-90.1683,18.5,1111122 
LUMCON,ioos:station:LUMCON:103:1,2010-11-04T07:00:00Z,30.1889,-90.1683,18.1,1111122 
LUMCON,ioos:station:LUMCON:103:1,2010-11-04T14:00:00Z,30.1889,-90.1683,15.4,1111122 
LUMCON,ioos:station:LUMCON:103:1,2010-11-04T15:00:00Z,30.1889,-90.1683,16.0,1111122 
LUMCON,ioos:station:LUMCON:103:1,2010-11-04T16:00:00Z,30.1889,-90.1683,17.0,1111122 
LUMCON,ioos:station:LUMCON:103:1,2010-11-04T17:00:00Z,30.1889,-90.1683,17.8,1111122 
LUMCON,ioos:station:LUMCON:103:1,2010-11-04T18:00:00Z,30.1889,-90.1683,18.3,1111122 
LUMCON,ioos:station:LUMCON:103:1,2010-11-04T19:00:00Z,30.1889,-90.1683,18.7,1111122 
LUMCON,ioos:station:LUMCON:103:1,2010-11-04T20:00:00Z,30.1889,-90.1683,18.8,1111122 
LUMCON,ioos:station:LUMCON:103:1,2010-11-04T21:00:00Z,30.1889,-90.1683,18.8,1111122 
LUMCON,ioos:station:LUMCON:103:1,2010-11-04T22:00:00Z,30.1889,-90.1683,18.8,1111122 
LUMCON,ioos:station:LUMCON:103:1,2010-11-04T23:00:00Z,30.1889,-90.1683,17.5,1111122 
LUMCON,ioos:station:LUMCON:103:1,2010-11-05T00:00:00Z,30.1889,-90.1683,16.2,1111122 
LUMCON,ioos:station:LUMCON:103:1,2010-11-05T01:00:00Z,30.1889,-90.1683,15.1,1111122 
LUMCON,ioos:station:LUMCON:103:1,2010-11-05T02:00:00Z,30.1889,-90.1683,14.5,1111122 
LUMCON,ioos:station:LUMCON:103:1,2010-11-05T03:00:00Z,30.1889,-90.1683,13.7,1111122 
LUMCON,ioos:station:LUMCON:103:1,2010-11-05T04:00:00Z,30.1889,-90.1683,13.0,1111122 
LUMCON,ioos:station:LUMCON:103:1,2010-11-05T05:00:00Z,30.1889,-90.1683,12.2,1111122 
LUMCON,ioos:station:LUMCON:103:1,2010-11-05T06:00:00Z,30.1889,-90.1683,11.6,1111122 
LUMCON,ioos:station:LUMCON:103:1,2010-11-05T07:00:00Z,30.1889,-90.1683,11.2,1111122 
LUMCON,ioos:station:LUMCON:103:1,2010-11-05T08:00:00Z,30.1889,-90.1683,10.8,1111122 
LUMCON,ioos:station:LUMCON:103:1,2010-11-05T09:00:00Z,30.1889,-90.1683,10.3,1111122 
LUMCON,ioos:station:LUMCON:103:1,2010-11-05T10:00:00Z,30.1889,-90.1683,10.4,1111122 
LUMCON,ioos:station:LUMCON:103:1,2010-11-05T11:00:00Z,30.1889,-90.1683,10.2,1111122 
LUMCON,ioos:station:LUMCON:103:1,2010-11-05T12:00:00Z,30.1889,-90.1683,9.5,1111122 
LUMCON,ioos:station:LUMCON:103:1,2010-11-05T13:00:00Z,30.1889,-90.1683,9.4,1111122 
LUMCON,ioos:station:LUMCON:103:1,2010-11-05T14:00:00Z,30.1889,-90.1683,10.4,1111122 
LUMCON,ioos:station:LUMCON:103:1,2010-11-05T15:00:00Z,30.1889,-90.1683,12.0,1111122 
LUMCON,ioos:station:LUMCON:103:1,2010-11-05T16:00:00Z,30.1889,-90.1683,12.8,1111122 
LUMCON,ioos:station:LUMCON:103:1,2010-11-05T17:00:00Z,30.1889,-90.1683,13.7,1111122 
LUMCON,ioos:station:LUMCON:103:1,2010-11-05T18:00:00Z,30.1889,-90.1683,14.2,1111122 
LUMCON,ioos:station:LUMCON:103:1,2010-11-05T19:00:00Z,30.1889,-90.1683,14.7,1111122 
LUMCON,ioos:station:LUMCON:103:1,2010-11-05T20:00:00Z,30.1889,-90.1683,15.0,1111122 
LUMCON,ioos:station:LUMCON:103:1,2010-11-05T21:00:00Z,30.1889,-90.1683,15.3,1111122 
LUMCON,ioos:station:LUMCON:103:1,2010-11-05T22:00:00Z,30.1889,-90.1683,15.2,1111122 
LUMCON,ioos:station:LUMCON:103:1,2010-11-05T23:00:00Z,30.1889,-90.1683,14.3,1111122 
LUMCON,ioos:station:LUMCON:103:1,2010-11-06T00:00:00Z,30.1889,-90.1683,12.9,1111122 
LUMCON,ioos:station:LUMCON:103:1,2010-11-06T01:00:00Z,30.1889,-90.1683,11.8,1111122 
LUMCON,ioos:station:LUMCON:103:1,2010-11-06T02:00:00Z,30.1889,-90.1683,11.0,1111122 
LUMCON,ioos:station:LUMCON:103:1,2010-11-06T03:00:00Z,30.1889,-90.1683,10.6,1111122 
LUMCON,ioos:station:LUMCON:103:1,2010-11-06T04:00:00Z,30.1889,-90.1683,10.0,1111122 
LUMCON,ioos:station:LUMCON:103:1,2010-11-06T05:00:00Z,30.1889,-90.1683,9.4,1111122 
LUMCON,ioos:station:LUMCON:103:1,2010-11-06T06:00:00Z,30.1889,-90.1683,9.0,1111122 
LUMCON,ioos:station:LUMCON:103:1,2010-11-06T07:00:00Z,30.1889,-90.1683,8.4,1111122 
LUMCON,ioos:station:LUMCON:103:1,2010-11-06T08:00:00Z,30.1889,-90.1683,8.0,1111122 
LUMCON,ioos:station:LUMCON:103:1,2010-11-06T09:00:00Z,30.1889,-90.1683,7.5,1111122 
LUMCON,ioos:station:LUMCON:103:1,2010-11-06T10:00:00Z,30.1889,-90.1683,7.6,1111122 
LUMCON,ioos:station:LUMCON:103:1,2010-11-06T11:00:00Z,30.1889,-90.1683,7.4,1111122 
LUMCON,ioos:station:LUMCON:103:1,2010-11-06T12:00:00Z,30.1889,-90.1683,6.7,1111122 
LUMCON,ioos:station:LUMCON:103:1,2010-11-06T13:00:00Z,30.1889,-90.1683,7.1,1111122 
LUMCON,ioos:station:LUMCON:103:1,2010-11-06T14:00:00Z,30.1889,-90.1683,8.8,1111122 
LUMCON,ioos:station:LUMCON:103:1,2010-11-06T15:00:00Z,30.1889,-90.1683,11.2,1111122 
LUMCON,ioos:station:LUMCON:103:1,2010-11-06T16:00:00Z,30.1889,-90.1683,12.3,1111122 
LUMCON,ioos:station:LUMCON:103:1,2010-11-06T17:00:00Z,30.1889,-90.1683,13.2,1111122 
LUMCON,ioos:station:LUMCON:103:1,2010-11-06T18:00:00Z,30.1889,-90.1683,14.2,1111122 
LUMCON,ioos:station:LUMCON:103:1,2010-11-06T19:00:00Z,30.1889,-90.1683,15.2,1111122 
LUMCON,ioos:station:LUMCON:103:1,2010-11-06T20:00:00Z,30.1889,-90.1683,16.0,1111122 
LUMCON,ioos:station:LUMCON:103:1,2010-11-06T21:00:00Z,30.1889,-90.1683,16.7,1111122 
LUMCON,ioos:station:LUMCON:103:1,2010-11-06T22:00:00Z,30.1889,-90.1683,17.1,1111122 
LUMCON,ioos:station:LUMCON:103:1,2010-11-06T23:00:00Z,30.1889,-90.1683,16.3,1111122 
LUMCON,ioos:station:LUMCON:103:1,2010-11-07T00:00:00Z,30.1889,-90.1683,14.7,1111122 
LUMCON,ioos:station:LUMCON:103:1,2010-11-07T01:00:00Z,30.1889,-90.1683,14.3,1111122 
LUMCON,ioos:station:LUMCON:103:1,2010-11-07T02:00:00Z,30.1889,-90.1683,13.5,1111122 
LUMCON,ioos:station:LUMCON:103:1,2010-11-07T03:00:00Z,30.1889,-90.1683,13.3,1111122 
LUMCON,ioos:station:LUMCON:103:1,2010-11-07T04:00:00Z,30.1889,-90.1683,13.0,1111122 
LUMCON,ioos:station:LUMCON:103:1,2010-11-07T05:00:00Z,30.1889,-90.1683,12.1,1111122 
LUMCON,ioos:station:LUMCON:103:1,2010-11-07T06:00:00Z,30.1889,-90.1683,11.7,1111122 
LUMCON,ioos:station:LUMCON:103:1,2010-11-07T08:00:00Z,30.1889,-90.1683,11.2,1111122 
LUMCON,ioos:station:LUMCON:103:1,2010-11-07T09:00:00Z,30.1889,-90.1683,10.9,11111222 
LUMCON,ioos:station:LUMCON:103:1,2010-11-07T10:00:00Z,30.1889,-90.1683,10.3,1111122 
LUMCON,ioos:station:LUMCON:103:1,2010-11-07T11:00:00Z,30.1889,-90.1683,9.1,1111122 
LUMCON,ioos:station:LUMCON:103:1,2010-11-07T12:00:00Z,30.1889,-90.1683,9.1,1111122 
LUMCON,ioos:station:LUMCON:103:1,2010-11-07T13:00:00Z,30.1889,-90.1683,9.6,11111222 
LUMCON,ioos:station:LUMCON:103:1,2010-11-07T14:00:00Z,30.1889,-90.1683,10.9,1111122 
LUMCON,ioos:station:LUMCON:103:1,2010-11-07T15:00:00Z,30.1889,-90.1683,11.9,1111122 
LUMCON,ioos:station:LUMCON:103:1,2010-11-07T16:00:00Z,30.1889,-90.1683,12.7,11111222 
LUMCON,ioos:station:LUMCON:103:1,2010-11-07T17:00:00Z,30.1889,-90.1683,13.7,1111122 
LUMCON,ioos:station:LUMCON:103:1,2010-11-07T18:00:00Z,30.1889,-90.1683,14.1,1111122 
LUMCON,ioos:station:LUMCON:103:1,2010-11-07T19:00:00Z,30.1889,-90.1683,14.5,1111122 
LUMCON,ioos:station:LUMCON:103:1,2010-11-07T20:00:00Z,30.1889,-90.1683,15.1,1111122 
LUMCON,ioos:station:LUMCON:103:1,2010-11-07T21:00:00Z,30.1889,-90.1683,15.3,1111122 
LUMCON,ioos:station:LUMCON:103:1,2010-11-07T22:00:00Z,30.1889,-90.1683,15.5,1111122 
LUMCON,ioos:station:LUMCON:103:1,2010-11-07T23:00:00Z,30.1889,-90.1683,14.7,1111122 
LUMCON,ioos:station:LUMCON:103:1,2010-11-08T00:00:00Z,30.1889,-90.1683,13.8,1111122 
LUMCON,ioos:station:LUMCON:103:1,2010-11-08T01:00:00Z,30.1889,-90.1683,13.7,1111122 
LUMCON,ioos:station:LUMCON:103:1,2010-11-08T02:00:00Z,30.1889,-90.1683,13.2,1111122 
LUMCON,ioos:station:LUMCON:103:1,2010-11-08T03:00:00Z,30.1889,-90.1683,13.0,1111122 
LUMCON,ioos:station:LUMCON:103:1,2010-11-08T05:00:00Z,30.1889,-90.1683,12.4,1111122 
LUMCON,ioos:station:LUMCON:103:1,2010-11-08T07:00:00Z,30.1889,-90.1683,11.3,1111122 
LUMCON,ioos:station:LUMCON:103:1,2010-11-08T08:00:00Z,30.1889,-90.1683,10.8,1111122 
LUMCON,ioos:station:LUMCON:103:1,2010-11-08T10:00:00Z,30.1889,-90.1683,10.1,1111122 
LUMCON,ioos:station:LUMCON:103:1,2010-11-08T12:00:00Z,30.1889,-90.1683,8.8,1111122 
LUMCON,ioos:station:LUMCON:103:1,2010-11-08T13:00:00Z,30.1889,-90.1683,9.6,1111122 
LUMCON,ioos:station:LUMCON:103:1,2010-11-08T14:00:00Z,30.1889,-90.1683,11.2,1111122 
LUMCON,ioos:station:LUMCON:103:1,2010-11-08T15:00:00Z,30.1889,-90.1683,13.4,1111122 
LUMCON,ioos:station:LUMCON:103:1,2010-11-08T16:00:00Z,30.1889,-90.1683,15.1,1111122 
LUMCON,ioos:station:LUMCON:103:1,2010-11-08T17:00:00Z,30.1889,-90.1683,16.8,1111122 
LUMCON,ioos:station:LUMCON:103:1,2010-11-08T22:00:00Z,30.1889,-90.1683,18.3,1111122 
LUMCON,ioos:station:LUMCON:103:1,2010-11-08T23:00:00Z,30.1889,-90.1683,17.5,1111122 
LUMCON,ioos:station:LUMCON:103:1,2010-11-09T00:00:00Z,30.1889,-90.1683,16.9,1111122 
LUMCON,ioos:station:LUMCON:103:1,2010-11-09T01:00:00Z,30.1889,-90.1683,16.7,1111122 
LUMCON,ioos:station:LUMCON:103:1,2010-11-09T02:00:00Z,30.1889,-90.1683,16.7,1111122 
LUMCON,ioos:station:LUMCON:103:1,2010-11-09T03:00:00Z,30.1889,-90.1683,16.7,1111122 
LUMCON,ioos:station:LUMCON:103:1,2010-11-09T05:00:00Z,30.1889,-90.1683,16.9,1111122 
LUMCON,ioos:station:LUMCON:103:1,2010-11-09T06:00:00Z,30.1889,-90.1683,16.2,1111122 
LUMCON,ioos:station:LUMCON:103:1,2010-11-09T08:00:00Z,30.1889,-90.1683,14.6,1111122 
LUMCON,ioos:station:LUMCON:103:1,2010-11-09T09:00:00Z,30.1889,-90.1683,14.3,1111122 
LUMCON,ioos:station:LUMCON:103:1,2010-11-09T10:00:00Z,30.1889,-90.1683,15.0,1111122 
LUMCON,ioos:station:LUMCON:103:1,2010-11-09T11:00:00Z,30.1889,-90.1683,14.4,1111122 
LUMCON,ioos:station:LUMCON:103:1,2010-11-09T16:00:00Z,30.1889,-90.1683,16.7,1111122 
LUMCON,ioos:station:LUMCON:103:1,2010-11-09T17:00:00Z,30.1889,-90.1683,17.5,1111122 
LUMCON,ioos:station:LUMCON:103:1,2010-11-09T18:00:00Z,30.1889,-90.1683,18.4,1111122 
LUMCON,ioos:station:LUMCON:103:1,2010-11-09T19:00:00Z,30.1889,-90.1683,18.9,1111122 
LUMCON,ioos:station:LUMCON:103:1,2010-11-09T20:00:00Z,30.1889,-90.1683,19.2,1111122 
LUMCON,ioos:station:LUMCON:103:1,2010-11-09T21:00:00Z,30.1889,-90.1683,19.4,1111122 
LUMCON,ioos:station:LUMCON:103:1,2010-11-09T22:00:00Z,30.1889,-90.1683,19.5,1111122 
LUMCON,ioos:station:LUMCON:103:1,2010-11-09T23:00:00Z,30.1889,-90.1683,19.0,1111122 
LUMCON,ioos:station:LUMCON:103:1,2010-11-10T00:00:00Z,30.1889,-90.1683,18.5,1111122 
LUMCON,ioos:station:LUMCON:103:1,2010-11-10T01:00:00Z,30.1889,-90.1683,18.2,1111122 
LUMCON,ioos:station:LUMCON:103:1,2010-11-10T02:00:00Z,30.1889,-90.1683,18.0,1111122 
LUMCON,ioos:station:LUMCON:103:1,2010-11-10T03:00:00Z,30.1889,-90.1683,18.0,1111122 
LUMCON,ioos:station:LUMCON:103:1,2010-11-10T04:00:00Z,30.1889,-90.1683,17.7,1111122 
LUMCON,ioos:station:LUMCON:103:1,2010-11-10T05:00:00Z,30.1889,-90.1683,17.7,1111122 
LUMCON,ioos:station:LUMCON:103:1,2010-11-10T06:00:00Z,30.1889,-90.1683,17.3,1111122 
LUMCON,ioos:station:LUMCON:103:1,2010-11-10T07:00:00Z,30.1889,-90.1683,17.1,1111122 
LUMCON,ioos:station:LUMCON:103:1,2010-11-10T08:00:00Z,30.1889,-90.1683,16.9,1111122 
LUMCON,ioos:station:LUMCON:103:1,2010-11-10T09:00:00Z,30.1889,-90.1683,16.3,1111122 
LUMCON,ioos:station:LUMCON:103:1,2010-11-10T10:00:00Z,30.1889,-90.1683,15.8,1111122 
LUMCON,ioos:station:LUMCON:103:1,2010-11-10T11:00:00Z,30.1889,-90.1683,15.4,1111122 
LUMCON,ioos:station:LUMCON:103:1,2010-11-10T12:00:00Z,30.1889,-90.1683,15.1,1111122 
LUMCON,ioos:station:LUMCON:103:1,2010-11-10T13:00:00Z,30.1889,-90.1683,15.1,1111122 
LUMCON,ioos:station:LUMCON:103:1,2010-11-10T14:00:00Z,30.1889,-90.1683,16.8,1111122 
LUMCON,ioos:station:LUMCON:103:1,2010-11-10T15:00:00Z,30.1889,-90.1683,17.3,1111122 
LUMCON,ioos:station:LUMCON:103:1,2010-11-10T16:00:00Z,30.1889,-90.1683,17.9,1111122 
LUMCON,ioos:station:LUMCON:103:1,2010-11-10T17:00:00Z,30.1889,-90.1683,19.1,1111122 
LUMCON,ioos:station:LUMCON:103:1,2010-11-10T18:00:00Z,30.1889,-90.1683,19.7,1111122 
LUMCON,ioos:station:LUMCON:103:1,2010-11-10T19:00:00Z,30.1889,-90.1683,20.0,1111122 
LUMCON,ioos:station:LUMCON:103:1,2010-11-10T20:00:00Z,30.1889,-90.1683,20.4,1111122 
LUMCON,ioos:station:LUMCON:103:1,2010-11-10T21:00:00Z,30.1889,-90.1683,20.4,1111122 
LUMCON,ioos:station:LUMCON:103:1,2010-11-10T22:00:00Z,30.1889,-90.1683,20.3,1111122 
LUMCON,ioos:station:LUMCON:103:1,2010-11-10T23:00:00Z,30.1889,-90.1683,19.9,1111122 
LUMCON,ioos:station:LUMCON:103:1,2010-11-11T17:00:00Z,30.1889,-90.1683,19.6,1111122 
LUMCON,ioos:station:LUMCON:103:1,2010-11-11T18:00:00Z,30.1889,-90.1683,19.8,1111122 
LUMCON,ioos:station:LUMCON:103:1,2010-11-11T19:00:00Z,30.1889,-90.1683,19.8,1111122 
LUMCON,ioos:station:LUMCON:103:1,2010-11-11T20:00:00Z,30.1889,-90.1683,20.4,1111122 
LUMCON,ioos:station:LUMCON:103:1,2010-11-11T21:00:00Z,30.1889,-90.1683,20.5,1111122 
LUMCON,ioos:station:LUMCON:103:1,2010-11-11T22:00:00Z,30.1889,-90.1683,21.1,1111122 
LUMCON,ioos:station:LUMCON:103:1,2010-11-11T23:00:00Z,30.1889,-90.1683,20.4,1111122 
LUMCON,ioos:station:LUMCON:103:1,2010-11-12T00:00:00Z,30.1889,-90.1683,20.0,1111122 
LUMCON,ioos:station:LUMCON:103:1,2010-11-12T01:00:00Z,30.1889,-90.1683,19.4,1111122 
LUMCON,ioos:station:LUMCON:103:1,2010-11-12T02:00:00Z,30.1889,-90.1683,18.9,1111122 
LUMCON,ioos:station:LUMCON:103:1,2010-11-12T03:00:00Z,30.1889,-90.1683,18.7,1111122 
LUMCON,ioos:station:LUMCON:103:1,2010-11-12T04:00:00Z,30.1889,-90.1683,18.5,1111122 
LUMCON,ioos:station:LUMCON:103:1,2010-11-12T05:00:00Z,30.1889,-90.1683,17.4,1111122 
LUMCON,ioos:station:LUMCON:103:1,2010-11-12T06:00:00Z,30.1889,-90.1683,16.6,1111122 
LUMCON,ioos:station:LUMCON:103:1,2010-11-12T07:00:00Z,30.1889,-90.1683,16.8,1111122 
LUMCON,ioos:station:LUMCON:103:1,2010-11-12T08:00:00Z,30.1889,-90.1683,16.7,1111122 
LUMCON,ioos:station:LUMCON:103:1,2010-11-12T09:00:00Z,30.1889,-90.1683,16.4,1111122 
LUMCON,ioos:station:LUMCON:103:1,2010-11-12T10:00:00Z,30.1889,-90.1683,15.9,1111122 
LUMCON,ioos:station:LUMCON:103:1,2010-11-12T11:00:00Z,30.1889,-90.1683,15.6,1111122 
LUMCON,ioos:station:LUMCON:103:1,2010-11-12T12:00:00Z,30.1889,-90.1683,16.0,1111122 
LUMCON,ioos:station:LUMCON:103:1,2010-11-12T13:00:00Z,30.1889,-90.1683,16.5,1111122 
LUMCON,ioos:station:LUMCON:103:1,2010-11-12T14:00:00Z,30.1889,-90.1683,17.5,1111122 
LUMCON,ioos:station:LUMCON:103:1,2010-11-12T15:00:00Z,30.1889,-90.1683,18.8,1111122 
LUMCON,ioos:station:LUMCON:103:1,2010-11-12T16:00:00Z,30.1889,-90.1683,20.0,1111122 
LUMCON,ioos:station:LUMCON:103:1,2010-11-12T17:00:00Z,30.1889,-90.1683,20.8,1111122 
LUMCON,ioos:station:LUMCON:103:1,2010-11-12T18:00:00Z,30.1889,-90.1683,21.3,1111122 
LUMCON,ioos:station:LUMCON:103:1,2010-11-12T19:00:00Z,30.1889,-90.1683,21.8,1111122 
LUMCON,ioos:station:LUMCON:103:1,2010-11-12T20:00:00Z,30.1889,-90.1683,21.9,1111122 
LUMCON,ioos:station:LUMCON:103:1,2010-11-12T21:00:00Z,30.1889,-90.1683,22.0,1111122 
LUMCON,ioos:station:LUMCON:103:1,2010-11-12T22:00:00Z,30.1889,-90.1683,22.0,1111122 
LUMCON,ioos:station:LUMCON:103:1,2010-11-12T23:00:00Z,30.1889,-90.1683,21.4,1111122 
LUMCON,ioos:station:LUMCON:103:1,2010-11-13T00:00:00Z,30.1889,-90.1683,20.8,1111122 
LUMCON,ioos:station:LUMCON:103:1,2010-11-13T01:00:00Z,30.1889,-90.1683,20.4,1111122 
LUMCON,ioos:station:LUMCON:103:1,2010-11-13T02:00:00Z,30.1889,-90.1683,20.3,1111122 
LUMCON,ioos:station:LUMCON:103:1,2010-11-13T03:00:00Z,30.1889,-90.1683,20.2,1111122 
LUMCON,ioos:station:LUMCON:103:1,2010-11-13T04:00:00Z,30.1889,-90.1683,20.0,1111122 
LUMCON,ioos:station:LUMCON:103:1,2010-11-13T05:00:00Z,30.1889,-90.1683,19.8,1111122 
LUMCON,ioos:station:LUMCON:103:1,2010-11-13T06:00:00Z,30.1889,-90.1683,19.6,1111122 
LUMCON,ioos:station:LUMCON:103:1,2010-11-13T07:00:00Z,30.1889,-90.1683,19.7,1111122 
LUMCON,ioos:station:LUMCON:103:1,2010-11-13T08:00:00Z,30.1889,-90.1683,19.7,1111122 
LUMCON,ioos:station:LUMCON:103:1,2010-11-13T09:00:00Z,30.1889,-90.1683,19.8,11111222 
LUMCON,ioos:station:LUMCON:103:1,2010-11-13T10:00:00Z,30.1889,-90.1683,19.8,1111122 
LUMCON,ioos:station:LUMCON:103:1,2010-11-13T12:00:00Z,30.1889,-90.1683,19.4,1111122 
LUMCON,ioos:station:LUMCON:103:1,2010-11-13T13:00:00Z,30.1889,-90.1683,19.6,11111222 
LUMCON,ioos:station:LUMCON:103:1,2010-11-13T14:00:00Z,30.1889,-90.1683,20.2,1111122 
LUMCON,ioos:station:LUMCON:103:1,2010-11-13T15:00:00Z,30.1889,-90.1683,20.5,1111122 
LUMCON,ioos:station:LUMCON:103:1,2010-11-13T16:00:00Z,30.1889,-90.1683,20.8,1111122 
LUMCON,ioos:station:LUMCON:103:1,2010-11-13T17:00:00Z,30.1889,-90.1683,20.8,1111122 
LUMCON,ioos:station:LUMCON:103:1,2010-11-13T18:00:00Z,30.1889,-90.1683,21.2,1111122 
LUMCON,ioos:station:LUMCON:103:1,2010-11-13T19:00:00Z,30.1889,-90.1683,21.4,1111122 
LUMCON,ioos:station:LUMCON:103:1,2010-11-13T20:00:00Z,30.1889,-90.1683,21.5,1111122 
LUMCON,ioos:station:LUMCON:103:1,2010-11-13T21:00:00Z,30.1889,-90.1683,21.4,1111122 
LUMCON,ioos:station:LUMCON:103:1,2010-11-15T15:00:00Z,30.1889,-90.1683,19.4,11111222 
LUMCON,ioos:station:LUMCON:103:1,2010-11-15T16:00:00Z,30.1889,-90.1683,18.9,1111122 
LUMCON,ioos:station:LUMCON:103:1,2010-11-15T17:00:00Z,30.1889,-90.1683,19.0,1111122 
LUMCON,ioos:station:LUMCON:103:1,2010-11-15T18:00:00Z,30.1889,-90.1683,19.9,1111122 
LUMCON,ioos:station:LUMCON:103:1,2010-11-15T19:00:00Z,30.1889,-90.1683,19.5,1111122 
LUMCON,ioos:station:LUMCON:103:1,2010-11-15T20:00:00Z,30.1889,-90.1683,19.3,1111122 
LUMCON,ioos:station:LUMCON:103:1,2010-11-15T21:00:00Z,30.1889,-90.1683,19.3,1111122 
LUMCON,ioos:station:LUMCON:103:1,2010-11-15T22:00:00Z,30.1889,-90.1683,19.2,1111122 
LUMCON,ioos:station:LUMCON:103:1,2010-11-15T23:00:00Z,30.1889,-90.1683,19.2,1111122 
LUMCON,ioos:station:LUMCON:103:1,2010-11-16T00:00:00Z,30.1889,-90.1683,19.1,1111122 
LUMCON,ioos:station:LUMCON:103:1,2010-11-16T01:00:00Z,30.1889,-90.1683,19.3,1111122 
LUMCON,ioos:station:LUMCON:103:1,2010-11-16T02:00:00Z,30.1889,-90.1683,18.3,1111122 
LUMCON,ioos:station:LUMCON:103:1,2010-11-16T03:00:00Z,30.1889,-90.1683,18.4,1111122 
LUMCON,ioos:station:LUMCON:103:1,2010-11-16T04:00:00Z,30.1889,-90.1683,18.3,1111122 
LUMCON,ioos:station:LUMCON:103:1,2010-11-16T05:00:00Z,30.1889,-90.1683,18.3,1111122 
LUMCON,ioos:station:LUMCON:103:1,2010-11-16T06:00:00Z,30.1889,-90.1683,18.5,1111122 
LUMCON,ioos:station:LUMCON:103:1,2010-11-16T07:00:00Z,30.1889,-90.1683,18.7,1111122 
LUMCON,ioos:station:LUMCON:103:1,2010-11-16T20:00:00Z,30.1889,-90.1683,19.4,1111122 
LUMCON,ioos:station:LUMCON:103:1,2010-11-16T21:00:00Z,30.1889,-90.1683,19.4,1111122 
LUMCON,ioos:station:LUMCON:103:1,2010-11-16T23:00:00Z,30.1889,-90.1683,18.2,1111122 
LUMCON,ioos:station:LUMCON:103:1,2010-11-17T07:00:00Z,30.1889,-90.1683,11.8,1111122 
LUMCON,ioos:station:LUMCON:103:1,2010-11-17T09:00:00Z,30.1889,-90.1683,12.1,1111122 
LUMCON,ioos:station:LUMCON:103:1,2010-11-18T08:00:00Z,30.1889,-90.1683,18.4,1111122 
LUMCON,ioos:station:LUMCON:103:1,2010-11-18T09:00:00Z,30.1889,-90.1683,18.2,1111122 
LUMCON,ioos:station:LUMCON:103:1,2010-11-19T02:00:00Z,30.1889,-90.1683,13.6,1111122 
LUMCON,ioos:station:LUMCON:103:1,2010-11-22T18:00:00Z,30.1889,-90.1683,20.8,11111222 
LUMCON,ioos:station:LUMCON:103:1,2010-11-22T20:00:00Z,30.1889,-90.1683,20.9,11111222 
LUMCON,ioos:station:LUMCON:103:1,2010-11-22T22:00:00Z,30.1889,-90.1683,22.1,11111222 
LUMCON,ioos:station:LUMCON:103:1,2010-11-23T04:00:00Z,30.1889,-90.1683,20.4,11111222 
LUMCON,ioos:station:LUMCON:103:1,2010-11-23T12:00:00Z,30.1889,-90.1683,19.6,11111222 
LUMCON,ioos:station:LUMCON:103:1,2010-11-23T13:00:00Z,30.1889,-90.1683,19.4,11111222 
LUMCON,ioos:station:LUMCON:103:1,2010-11-23T14:00:00Z,30.1889,-90.1683,20.1,11111222 
LUMCON,ioos:station:LUMCON:103:1,2010-11-24T15:00:00Z,30.1889,-90.1683,20.8,1111122 
LUMCON,ioos:station:LUMCON:103:1,2010-11-24T16:00:00Z,30.1889,-90.1683,21.1,1111122 
LUMCON,ioos:station:LUMCON:103:1,2010-11-24T17:00:00Z,30.1889,-90.1683,21.4,1111122 
LUMCON,ioos:station:LUMCON:103:1,2010-11-24T18:00:00Z,30.1889,-90.1683,21.7,1111122 
LUMCON,ioos:station:LUMCON:103:1,2010-11-24T19:00:00Z,30.1889,-90.1683,22.0,1111122 
LUMCON,ioos:station:LUMCON:103:1,2010-11-24T20:00:00Z,30.1889,-90.1683,22.6,1111122 
LUMCON,ioos:station:LUMCON:103:1,2010-11-24T21:00:00Z,30.1889,-90.1683,22.6,1111122 
LUMCON,ioos:station:LUMCON:103:1,2010-11-24T22:00:00Z,30.1889,-90.1683,22.5,1111122 
LUMCON,ioos:station:LUMCON:103:1,2010-11-24T23:00:00Z,30.1889,-90.1683,21.9,1111122 
LUMCON,ioos:station:LUMCON:103:1,2010-11-25T00:00:00Z,30.1889,-90.1683,21.8,1111122 
LUMCON,ioos:station:LUMCON:103:1,2010-11-25T02:00:00Z,30.1889,-90.1683,21.6,1111122 
LUMCON,ioos:station:LUMCON:103:1,2010-11-25T13:00:00Z,30.1889,-90.1683,21.4,1111122 
LUMCON,ioos:station:LUMCON:103:1,2010-11-27T18:00:00Z,30.1889,-90.1683,11.4,1111122 
LUMCON,ioos:station:LUMCON:103:1,2010-11-28T13:00:00Z,30.1889,-90.1683,11.4,1111122 
LUMCON,ioos:station:LUMCON:103:1,2010-11-28T15:00:00Z,30.1889,-90.1683,13.2,1111122 
LUMCON,ioos:station:LUMCON:103:1,2010-11-28T20:00:00Z,30.1889,-90.1683,16.6,1111122 
LUMCON,ioos:station:LUMCON:103:1,2010-11-29T03:00:00Z,30.1889,-90.1683,16.3,1111122 
LUMCON,ioos:station:LUMCON:103:1,2010-11-29T09:00:00Z,30.1889,-90.1683,17.0,1111122 
LUMCON,ioos:station:LUMCON:103:1,2010-11-29T11:00:00Z,30.1889,-90.1683,17.2,1111122 
LUMCON,ioos:station:LUMCON:103:1,2010-11-29T18:00:00Z,30.1889,-90.1683,20.4,1111122 
LUMCON,ioos:station:LUMCON:103:1,2010-11-29T19:00:00Z,30.1889,-90.1683,21.2,1111122 
LUMCON,ioos:station:LUMCON:103:1,2010-11-29T20:00:00Z,30.1889,-90.1683,21.4,1111122 
LUMCON,ioos:station:LUMCON:103:1,2010-11-29T21:00:00Z,30.1889,-90.1683,21.4,1111122 
LUMCON,ioos:station:LUMCON:103:1,2010-11-29T22:00:00Z,30.1889,-90.1683,21.0,1111122 
LUMCON,ioos:station:LUMCON:103:1,2010-11-30T00:00:00Z,30.1889,-90.1683,20.4,1111122 
LUMCON,ioos:station:LUMCON:103:1,2010-11-30T02:00:00Z,30.1889,-90.1683,20.2,1111122 
LUMCON,ioos:station:LUMCON:103:1,2010-11-30T11:00:00Z,30.1889,-90.1683,19.7,1111122 
LUMCON,ioos:station:LUMCON:103:1,2010-11-30T12:00:00Z,30.1889,-90.1683,19.6,1111122 
LUMCON,ioos:station:LUMCON:103:1,2010-11-30T13:00:00Z,30.1889,-90.1683,17.8,1111122 
LUMCON,ioos:station:LUMCON:103:1,2010-11-30T14:00:00Z,30.1889,-90.1683,15.4,1111122 
LUMCON,ioos:station:LUMCON:103:1,2010-11-30T16:00:00Z,30.1889,-90.1683,12.7,1111122 
LUMCON,ioos:station:LUMCON:103:1,2010-11-30T17:00:00Z,30.1889,-90.1683,11.9,1111122 
LUMCON,ioos:station:LUMCON:103:1,2010-11-30T18:00:00Z,30.1889,-90.1683,11.4,1111122 
LUMCON,ioos:station:LUMCON:103:1,2010-11-30T19:00:00Z,30.1889,-90.1683,11.7,1111122 
LUMCON,ioos:station:LUMCON:103:1,2010-11-30T20:00:00Z,30.1889,-90.1683,12.0,1111122 
LUMCON,ioos:station:LUMCON:103:1,2010-11-30T21:00:00Z,30.1889,-90.1683,12.4,1111122 
LUMCON,ioos:station:LUMCON:103:1,2010-11-30T22:00:00Z,30.1889,-90.1683,12.2,1111122 
LUMCON,ioos:station:LUMCON:103:1,2010-11-30T23:00:00Z,30.1889,-90.1683,11.4,1111122 
 